THY1525 LTFM-OMDB

Flight info

Callsign THY1525
Flight time 4h 34m
Altitude 37000
Route RATVU1H/18 RATVU UT35 AYT UM855 TOMBI DCT SAFTA DCT TEZAK DCT LAKTO L560 SILKA M872 BDB Y214 RAPMA DCT KUVSO DCT KATIT DCT PEKEM M628 RIGIL G783 ASPED Q308 KIPOK Q568 IMPED
Aircraft B789/H-SDE1E2E3FGHIJ2J3J4J5M1RWXY/LB1D1

Departure

Time 2026-04-26 11:11
Airport İstanbul Airport (LTFM)

Arrival

Time 2026-04-26 15:45
Airport Dubai International Airport (OMDB)
Time Latitude Longitude Altitude Speed Heading
2026-04-26 10:41 41.26870 28.74358 339 ft 0 kts 267°
2026-04-26 10:58 41.26871 28.74376 334 ft 4 kts 271°
2026-04-26 10:58 41.26868 28.74411 334 ft 4 kts 284°
2026-04-26 10:58 41.26859 28.74444 335 ft 4 kts 305°
2026-04-26 10:58 41.26841 28.74465 334 ft 3 kts 353°
2026-04-26 10:59 41.26837 28.74466 334 ft 0 kts 359°
2026-04-26 11:02 41.26839 28.74466 340 ft 1 kts 359°
2026-04-26 11:02 41.26904 28.74464 337 ft 19 kts 359°
2026-04-26 11:02 41.27066 28.74459 335 ft 22 kts 358°
2026-04-26 11:02 41.27141 28.74502 335 ft 12 kts 71°
2026-04-26 11:03 41.27150 28.74658 340 ft 20 kts 89°
2026-04-26 11:03 41.27151 28.74847 340 ft 23 kts 89°
2026-04-26 11:03 41.27154 28.75088 337 ft 27 kts 89°
2026-04-26 11:03 41.27156 28.75241 336 ft 9 kts 88°
2026-04-26 11:04 41.27160 28.75330 336 ft 11 kts 79°
2026-04-26 11:04 41.27230 28.75368 336 ft 14 kts 359°
2026-04-26 11:04 41.27380 28.75364 337 ft 27 kts 359°
2026-04-26 11:04 41.27566 28.75359 337 ft 27 kts 359°
2026-04-26 11:05 41.27754 28.75354 335 ft 27 kts 359°
2026-04-26 11:05 41.27942 28.75351 337 ft 27 kts 359°
2026-04-26 11:05 41.28132 28.75347 335 ft 27 kts 359°
2026-04-26 11:05 41.28323 28.75343 339 ft 28 kts 359°
2026-04-26 11:06 41.28515 28.75339 335 ft 28 kts 359°
2026-04-26 11:06 41.28643 28.75335 336 ft 28 kts 359°
2026-04-26 11:06 41.28858 28.75330 334 ft 16 kts 359°
2026-04-26 11:06 41.28937 28.75328 339 ft 2 kts 359°
2026-04-26 11:07 41.28943 28.75329 339 ft 1 kts
2026-04-26 11:07 41.28945 28.75329 339 ft 0 kts
2026-04-26 11:07 41.28946 28.75329 340 ft 1 kts
2026-04-26 11:07 41.28978 28.75349 339 ft 5 kts 40°
2026-04-26 11:08 41.28992 28.75420 337 ft 8 kts 88°
2026-04-26 11:08 41.28993 28.75447 338 ft 0 kts 90°
2026-04-26 11:09 41.28993 28.75448 339 ft 2 kts 90°
2026-04-26 11:09 41.28993 28.75528 340 ft 12 kts 90°
2026-04-26 11:09 41.28980 28.75607 336 ft 6 kts 133°
2026-04-26 11:09 41.28957 28.75614 335 ft 0 kts 176°
2026-04-26 11:10 41.28956 28.75614 335 ft 0 kts 176°
2026-04-26 11:10 41.28838 28.75619 338 ft 47 kts 179°
2026-04-26 11:10 41.28263 28.75629 339 ft 117 kts 179°
2026-04-26 11:10 41.27246 28.75645 360 ft 172 kts 181°
2026-04-26 11:11 41.26068 28.75691 1257 ft 167 kts 176°
2026-04-26 11:11 41.24965 28.76366 2052 ft 190 kts 148°
2026-04-26 11:11 41.23875 28.77422 3078 ft 192 kts 145°
2026-04-26 11:11 41.22819 28.78472 4061 ft 195 kts 146°
2026-04-26 11:12 41.21616 28.79550 4426 ft 222 kts 148°
2026-04-26 11:12 41.20231 28.80712 4809 ft 249 kts 149°
2026-04-26 11:12 41.18640 28.81937 5126 ft 278 kts 159°
2026-04-26 11:12 41.16749 28.82208 6211 ft 271 kts 184°
2026-04-26 11:13 41.14838 28.82141 7101 ft 278 kts 185°
2026-04-26 11:13 41.12913 28.82010 8142 ft 279 kts 186°
2026-04-26 11:13 41.10966 28.81868 9125 ft 282 kts 186°
2026-04-26 11:13 41.08997 28.81741 10080 ft 285 kts 186°
2026-04-26 11:14 41.06950 28.81613 10509 ft 307 kts 186°
2026-04-26 11:14 41.04722 28.81468 10731 ft 334 kts 186°
2026-04-26 11:14 41.02307 28.81313 10962 ft 359 kts 185°
2026-04-26 11:14 41.00654 28.81212 11528 ft 359 kts 185°
2026-04-26 11:15 40.97316 28.81449 12500 ft 373 kts 166°
2026-04-26 11:15 40.94875 28.82698 13262 ft 379 kts 158°
2026-04-26 11:15 40.92463 28.84190 13989 ft 385 kts 156°
2026-04-26 11:15 40.89971 28.85645 14681 ft 388 kts 160°
2026-04-26 11:16 40.87438 28.86952 15369 ft 392 kts 161°
2026-04-26 11:16 40.84927 28.88255 16037 ft 396 kts 160°
2026-04-26 11:16 40.82367 28.89661 16695 ft 400 kts 159°
2026-04-26 11:16 40.79789 28.91083 17346 ft 403 kts 159°
2026-04-26 11:17 40.77177 28.92489 17986 ft 407 kts 159°
2026-04-26 11:17 40.74542 28.93897 18579 ft 411 kts 159°
2026-04-26 11:17 40.71877 28.95333 19132 ft 414 kts 159°
2026-04-26 11:17 40.69211 28.96776 19671 ft 416 kts 159°
2026-04-26 11:18 40.66522 28.98225 20227 ft 419 kts 159°
2026-04-26 11:18 40.63812 28.99678 20741 ft 422 kts 159°
2026-04-26 11:18 40.61087 29.01141 21255 ft 424 kts 158°
2026-04-26 11:18 40.58342 29.02617 21725 ft 428 kts 158°
2026-04-26 11:19 40.55574 29.04102 22200 ft 431 kts 158°
2026-04-26 11:19 40.52788 29.05594 22685 ft 433 kts 158°
2026-04-26 11:19 40.49988 29.07091 23140 ft 436 kts 158°
2026-04-26 11:19 40.47157 29.08603 23492 ft 441 kts 158°
2026-04-26 11:20 40.44307 29.10129 23887 ft 443 kts 158°
2026-04-26 11:20 40.42418 29.11139 24124 ft 445 kts 158°
2026-04-26 11:20 40.38561 29.13195 24564 ft 449 kts 158°
2026-04-26 11:20 40.35701 29.14717 24907 ft 451 kts 158°
2026-04-26 11:21 40.32756 29.16286 25264 ft 453 kts 158°
2026-04-26 11:21 40.29870 29.17822 25642 ft 454 kts 158°
2026-04-26 11:21 40.26939 29.19379 25969 ft 456 kts 158°
2026-04-26 11:21 40.23988 29.20945 26302 ft 459 kts 158°
2026-04-26 11:22 40.21021 29.22519 26632 ft 461 kts 158°
2026-04-26 11:22 40.18036 29.24101 26974 ft 464 kts 158°
2026-04-26 11:22 40.15039 29.25687 27316 ft 467 kts 157°
2026-04-26 11:22 40.12021 29.27282 27691 ft 469 kts 157°
2026-04-26 11:23 40.10011 29.28344 27929 ft 470 kts 157°
2026-04-26 11:23 40.05940 29.30495 28378 ft 474 kts 157°
2026-04-26 11:23 40.03909 29.31566 28603 ft 476 kts 157°
2026-04-26 11:23 40.00830 29.33188 28945 ft 479 kts 157°
2026-04-26 11:24 39.97808 29.34779 29292 ft 481 kts 157°
2026-04-26 11:24 39.94694 29.36416 29630 ft 484 kts 157°
2026-04-26 11:24 39.91560 29.38064 29984 ft 487 kts 156°
2026-04-26 11:24 39.88409 29.39717 30298 ft 489 kts 156°
2026-04-26 11:25 39.85244 29.41377 30610 ft 492 kts 156°
2026-04-26 11:25 39.82064 29.43043 30936 ft 494 kts 156°
2026-04-26 11:25 39.78868 29.44715 31227 ft 496 kts 156°
2026-04-26 11:25 39.75661 29.46392 31524 ft 499 kts 157°
2026-04-26 11:26 39.72436 29.48076 31828 ft 501 kts 157°
2026-04-26 11:26 39.69191 29.49769 32132 ft 503 kts 157°
2026-04-26 11:26 39.65932 29.51468 32460 ft 505 kts 156°
2026-04-26 11:26 39.62654 29.53171 32777 ft 507 kts 157°
2026-04-26 11:27 39.59408 29.54797 33282 ft 505 kts 158°
2026-04-26 11:27 39.56125 29.56401 33754 ft 504 kts 158°
2026-04-26 11:27 39.52859 29.58025 34155 ft 503 kts 157°
2026-04-26 11:27 39.49597 29.59673 34515 ft 503 kts 157°
2026-04-26 11:28 39.46334 29.61307 34864 ft 503 kts 158°
2026-04-26 11:28 39.43061 29.62925 35226 ft 502 kts 158°
2026-04-26 11:28 39.40001 29.64442 35582 ft 501 kts 158°
2026-04-26 11:28 39.36752 29.66062 35932 ft 501 kts 158°
2026-04-26 11:29 39.33498 29.67682 36265 ft 501 kts 158°
2026-04-26 11:29 39.30246 29.69292 36608 ft 501 kts 158°
2026-04-26 11:29 39.26987 29.70904 36973 ft 500 kts 158°
2026-04-26 11:29 39.23725 29.72520 36995 ft 506 kts 158°
2026-04-26 11:30 39.18280 29.75212 36995 ft 501 kts 158°
2026-04-26 11:30 39.10552 29.78417 36996 ft 499 kts 165°
2026-04-26 11:31 39.03873 29.80647 36992 ft 499 kts 163°
2026-04-26 11:31 38.97193 29.83099 37001 ft 498 kts 164°
2026-04-26 11:32 38.90532 29.85394 36998 ft 494 kts 164°
2026-04-26 11:32 38.83885 29.87768 37000 ft 496 kts 164°
2026-04-26 11:33 38.77225 29.90091 36996 ft 496 kts 164°
2026-04-26 11:33 38.72721 29.91680 36995 ft 496 kts 164°
2026-04-26 11:34 38.66792 29.93757 36999 ft 495 kts 164°
2026-04-26 11:34 38.60203 29.96060 36995 ft 494 kts 164°
2026-04-26 11:35 38.53557 29.98383 37002 ft 494 kts 164°
2026-04-26 11:35 38.46920 30.00694 37003 ft 493 kts 164°
2026-04-26 11:36 38.40303 30.02996 36998 ft 494 kts 164°
2026-04-26 11:36 38.33701 30.05288 36996 ft 495 kts 164°
2026-04-26 11:37 38.27065 30.07587 37004 ft 493 kts 164°
2026-04-26 11:37 38.20486 30.09862 37003 ft 493 kts 164°
2026-04-26 11:38 38.13864 30.12149 37004 ft 492 kts 164°
2026-04-26 11:38 38.07254 30.14426 37011 ft 491 kts 165°
2026-04-26 11:39 38.00686 30.16685 37010 ft 491 kts 165°
2026-04-26 11:39 37.94077 30.18954 37025 ft 492 kts 165°
2026-04-26 11:40 37.87463 30.21219 37027 ft 494 kts 164°
2026-04-26 11:40 37.80847 30.23482 37030 ft 490 kts 165°
2026-04-26 11:42 37.54461 30.32464 37009 ft 489 kts 165°
2026-04-26 11:43 37.47883 30.34693 37007 ft 490 kts 165°
2026-04-26 11:43 37.41302 30.36919 37000 ft 490 kts 165°
2026-04-26 11:44 37.34717 30.39142 36988 ft 489 kts 165°
2026-04-26 11:44 37.28196 30.41339 36978 ft 487 kts 165°
2026-04-26 11:45 37.21655 30.43540 36973 ft 487 kts 165°
2026-04-26 11:45 37.15098 30.45744 36967 ft 488 kts 166°
2026-04-26 11:46 37.08552 30.47935 36960 ft 486 kts 166°
2026-04-26 11:46 37.02013 30.50125 36958 ft 487 kts 166°
2026-04-26 11:47 36.95466 30.52309 36948 ft 487 kts 165°
2026-04-26 11:47 36.88908 30.54499 36947 ft 488 kts 166°
2026-04-26 11:48 36.82341 30.56683 36943 ft 488 kts 166°
2026-04-26 11:48 36.75774 30.58865 36945 ft 487 kts 166°
2026-04-26 11:49 36.69237 30.61033 36941 ft 486 kts 166°
2026-04-26 11:49 36.62698 30.63197 36938 ft 487 kts 166°
2026-04-26 11:50 36.56190 30.65348 36939 ft 487 kts 166°
2026-04-26 11:50 36.49630 30.67512 36945 ft 488 kts 166°
2026-04-26 11:51 36.43060 30.69676 36943 ft 489 kts 166°
2026-04-26 11:51 36.36482 30.71838 36945 ft 489 kts 166°
2026-04-26 11:52 36.30969 30.73648 36946 ft 489 kts 166°
2026-04-26 11:52 36.23346 30.76146 36942 ft 487 kts 166°
2026-04-26 11:53 36.16788 30.78290 36941 ft 487 kts 166°
2026-04-26 11:54 36.06950 30.81500 36939 ft 487 kts 166°
2026-04-26 11:54 36.00446 30.83871 36944 ft 488 kts 164°
2026-04-26 11:55 35.93941 30.86323 36948 ft 490 kts 164°
2026-04-26 11:55 35.87439 30.88851 36942 ft 490 kts 164°
2026-04-26 11:56 35.80928 30.91337 36946 ft 489 kts 164°
2026-04-26 11:56 35.74433 30.93833 36940 ft 488 kts 164°
2026-04-26 11:57 35.67959 30.96307 36934 ft 487 kts 165°
2026-04-26 11:57 35.61494 30.98776 36925 ft 486 kts 165°
2026-04-26 11:58 35.55032 31.01240 36926 ft 487 kts 165°
2026-04-26 11:58 35.48557 31.03705 36935 ft 487 kts 165°
2026-04-26 11:59 35.42081 31.06165 36933 ft 487 kts 165°
2026-04-26 11:59 35.35599 31.08625 36928 ft 488 kts 165°
2026-04-26 12:00 35.29116 31.11079 36929 ft 488 kts 165°
2026-04-26 12:00 35.22629 31.13532 36928 ft 487 kts 165°
2026-04-26 12:01 35.16149 31.15978 36927 ft 486 kts 165°
2026-04-26 12:01 35.09724 31.18399 36929 ft 486 kts 165°
2026-04-26 12:02 35.03254 31.20833 36915 ft 486 kts 166°
2026-04-26 12:02 34.96781 31.23264 36922 ft 487 kts 166°
2026-04-26 12:03 34.90297 31.25695 36923 ft 488 kts 166°
2026-04-26 12:03 34.83810 31.28123 36927 ft 488 kts 166°
2026-04-26 12:04 34.77320 31.30549 36923 ft 488 kts 166°
2026-04-26 12:04 34.70815 31.32975 36924 ft 490 kts 166°
2026-04-26 12:05 34.64291 31.35406 36924 ft 489 kts 166°
2026-04-26 12:05 34.57793 31.37822 36925 ft 488 kts 166°
2026-04-26 12:06 34.51315 31.40228 36923 ft 487 kts 166°
2026-04-26 12:06 34.44826 31.42632 36923 ft 488 kts 166°
2026-04-26 12:07 34.38321 31.45040 36924 ft 489 kts 166°
2026-04-26 12:07 34.31808 31.47446 36927 ft 490 kts 166°
2026-04-26 12:08 34.25292 31.49850 36934 ft 489 kts 167°
2026-04-26 12:08 34.18778 31.52247 36922 ft 490 kts 167°
2026-04-26 12:09 34.13373 31.54236 36926 ft 487 kts 167°
2026-04-26 12:09 34.05840 31.57001 36925 ft 485 kts 167°
2026-04-26 12:10 33.99369 31.59372 36929 ft 486 kts 167°
2026-04-26 12:10 33.93945 31.61357 36931 ft 487 kts 167°
2026-04-26 12:11 33.87488 31.63716 36934 ft 489 kts 167°
2026-04-26 12:11 33.80975 31.66093 36936 ft 489 kts 167°
2026-04-26 12:12 33.74477 31.68460 36931 ft 486 kts 168°
2026-04-26 12:12 33.68003 31.70810 36929 ft 485 kts 168°
2026-04-26 12:13 33.61534 31.73158 36933 ft 485 kts 168°
2026-04-26 12:13 33.55078 31.75496 36915 ft 485 kts 168°
2026-04-26 12:14 33.48606 31.77837 36957 ft 487 kts 168°
2026-04-26 12:14 33.42104 31.80185 36951 ft 488 kts 169°
2026-04-26 12:15 33.35617 31.82523 36947 ft 486 kts 169°
2026-04-26 12:15 33.29153 31.84850 36923 ft 484 kts 169°
2026-04-26 12:16 33.22679 31.87173 36943 ft 487 kts 169°
2026-04-26 12:16 33.16185 31.89505 36944 ft 488 kts 169°
2026-04-26 12:17 33.09681 31.91834 36953 ft 488 kts 169°
2026-04-26 12:17 33.03180 31.94160 36947 ft 487 kts 170°
2026-04-26 12:18 32.96683 31.96479 36953 ft 488 kts 170°
2026-04-26 12:18 32.90159 31.98806 36955 ft 489 kts 170°
2026-04-26 12:19 32.83650 32.01123 36955 ft 487 kts 170°
2026-04-26 12:19 32.77197 32.03418 36951 ft 486 kts 171°
2026-04-26 12:20 32.70701 32.05720 36955 ft 488 kts 171°
2026-04-26 12:20 32.64227 32.08241 36989 ft 495 kts 162°
2026-04-26 12:21 32.58296 32.12621 36963 ft 506 kts 152°
2026-04-26 12:21 32.52579 32.17474 36971 ft 505 kts 151°
2026-04-26 12:22 32.47311 32.21944 36963 ft 509 kts 152°
2026-04-26 12:22 32.41469 32.26894 36966 ft 508 kts 152°
2026-04-26 12:23 32.35727 32.31749 36963 ft 507 kts 152°
2026-04-26 12:23 32.29987 32.36596 36951 ft 507 kts 152°
2026-04-26 12:24 32.24242 32.41437 36951 ft 508 kts 152°
2026-04-26 12:24 32.18475 32.46291 36956 ft 512 kts 153°
2026-04-26 12:25 32.09762 32.53609 36961 ft 511 kts 153°
2026-04-26 12:25 32.03973 32.58454 36956 ft 509 kts 153°
2026-04-26 12:26 31.98193 32.63290 36958 ft 509 kts 153°
2026-04-26 12:26 31.92404 32.68121 36958 ft 509 kts 153°
2026-04-26 12:27 31.86619 32.72943 36958 ft 512 kts 153°
2026-04-26 12:27 31.80791 32.77795 36964 ft 513 kts 153°
2026-04-26 12:28 31.74964 32.82638 36964 ft 513 kts 153°
2026-04-26 12:28 31.69119 32.87488 36969 ft 513 kts 153°
2026-04-26 12:29 31.63289 32.92318 36975 ft 513 kts 154°
2026-04-26 12:30 31.54536 32.99554 36964 ft 514 kts 154°
2026-04-26 12:30 31.48722 33.04353 36959 ft 514 kts 154°
2026-04-26 12:31 31.39959 33.11569 36957 ft 513 kts 154°
2026-04-26 12:31 31.36972 33.13763 36977 ft 501 kts 162°
2026-04-26 12:31 31.33776 33.15396 36978 ft 489 kts 171°
2026-04-26 12:32 31.27364 33.17911 36962 ft 489 kts 172°
2026-04-26 12:33 31.17660 33.21684 36965 ft 490 kts 171°
2026-04-26 12:33 31.11184 33.24203 36971 ft 490 kts 172°
2026-04-26 12:34 31.04708 33.26715 36921 ft 490 kts 172°
2026-04-26 12:34 30.98245 33.29221 36961 ft 489 kts 172°
2026-04-26 12:35 30.91788 33.31719 36957 ft 489 kts 172°
2026-04-26 12:35 30.85330 33.34215 36956 ft 489 kts 172°
2026-04-26 12:36 30.78877 33.36706 36951 ft 488 kts 172°
2026-04-26 12:36 30.72454 33.39177 36949 ft 493 kts 172°
2026-04-26 12:37 30.65934 33.41692 36951 ft 493 kts 172°
2026-04-26 12:37 30.59431 33.44187 36949 ft 492 kts 172°
2026-04-26 12:38 30.53382 33.46509 36945 ft 491 kts 172°
2026-04-26 12:38 30.46899 33.48995 36935 ft 491 kts 172°
2026-04-26 12:39 30.40401 33.51479 36932 ft 492 kts 172°
2026-04-26 12:39 30.33890 33.53970 36936 ft 492 kts 172°
2026-04-26 12:40 30.27389 33.56449 36935 ft 492 kts 172°
2026-04-26 12:40 30.20880 33.58930 36933 ft 493 kts 173°
2026-04-26 12:41 30.14352 33.61414 36932 ft 494 kts 173°
2026-04-26 12:41 30.07821 33.63897 36931 ft 494 kts 173°
2026-04-26 12:42 30.01299 33.66371 36930 ft 493 kts 173°
2026-04-26 12:42 29.94782 33.68842 36922 ft 493 kts 173°
2026-04-26 12:43 29.88256 33.71312 36919 ft 493 kts 173°
2026-04-26 12:43 29.81739 33.73778 36919 ft 493 kts 173°
2026-04-26 12:44 29.75262 33.76224 36914 ft 493 kts 173°
2026-04-26 12:44 29.68752 33.78681 36916 ft 492 kts 173°
2026-04-26 12:45 29.62221 33.81138 36910 ft 494 kts 173°
2026-04-26 12:45 29.55686 33.83600 36911 ft 494 kts 173°
2026-04-26 12:46 29.49158 33.86055 36910 ft 494 kts 173°
2026-04-26 12:46 29.42638 33.88505 36920 ft 492 kts 173°
2026-04-26 12:47 29.36112 33.90949 36911 ft 494 kts 173°
2026-04-26 12:47 29.29576 33.93400 36923 ft 494 kts 173°
2026-04-26 12:48 29.23040 33.95845 36919 ft 493 kts 174°
2026-04-26 12:48 29.16566 33.98263 36889 ft 492 kts 174°
2026-04-26 12:49 29.10028 34.00697 36915 ft 496 kts 174°
2026-04-26 12:49 29.03454 34.03151 36924 ft 497 kts 174°
2026-04-26 12:50 28.96888 34.05592 36932 ft 496 kts 174°
2026-04-26 12:50 28.90290 34.08043 36920 ft 496 kts 174°
2026-04-26 12:51 28.83714 34.10481 36926 ft 499 kts 174°
2026-04-26 12:51 28.77109 34.12933 36920 ft 498 kts 174°
2026-04-26 12:52 28.70537 34.15362 36915 ft 497 kts 174°
2026-04-26 12:52 28.63994 34.17780 36917 ft 498 kts 174°
2026-04-26 12:53 28.57406 34.20212 36922 ft 497 kts 174°
2026-04-26 12:53 28.50820 34.22639 36905 ft 497 kts 174°
2026-04-26 12:54 28.45353 34.24650 36906 ft 496 kts 174°
2026-04-26 12:54 28.38780 34.27068 36908 ft 497 kts 174°
2026-04-26 12:55 28.32200 34.29484 36916 ft 499 kts 174°
2026-04-26 12:55 28.25578 34.31914 36915 ft 500 kts 174°
2026-04-26 12:56 28.18964 34.34335 36890 ft 499 kts 174°
2026-04-26 12:56 28.12360 34.36753 36886 ft 499 kts 173°
2026-04-26 12:56 28.09106 34.38254 36902 ft 512 kts 165°
2026-04-26 12:57 28.05986 34.40323 36898 ft 528 kts 155°
2026-04-26 12:57 28.03070 34.42975 36897 ft 545 kts 145°
2026-04-26 12:57 28.00479 34.46175 36899 ft 558 kts 135°
2026-04-26 12:58 27.96649 34.53972 36906 ft 579 kts 114°
2026-04-26 12:58 27.95457 34.58342 36890 ft 583 kts 111°
2026-04-26 12:58 27.93190 34.67156 36884 ft 584 kts 111°
2026-04-26 12:59 27.90932 34.75966 36877 ft 583 kts 111°
2026-04-26 12:59 27.88654 34.84763 36882 ft 583 kts 111°
2026-04-26 13:00 27.86384 34.93565 36885 ft 583 kts 111°
2026-04-26 13:00 27.84100 35.02348 36890 ft 582 kts 111°
2026-04-26 13:01 27.81819 35.11124 36884 ft 582 kts 111°
2026-04-26 13:01 27.79528 35.19897 36901 ft 582 kts 111°
2026-04-26 13:02 27.77236 35.28660 36898 ft 582 kts 111°
2026-04-26 13:02 27.74270 35.37017 36929 ft 563 kts 131°
2026-04-26 13:03 27.72003 35.40490 36930 ft 552 kts 140°
2026-04-26 13:03 27.69380 35.43689 36918 ft 546 kts 144°
2026-04-26 13:03 27.64103 35.49785 36933 ft 551 kts 140°
2026-04-26 13:04 27.59399 35.56708 36930 ft 560 kts 134°
2026-04-26 13:04 27.54683 35.63615 36931 ft 552 kts 139°
2026-04-26 13:05 27.49823 35.70336 36937 ft 555 kts 136°
2026-04-26 13:05 27.45081 35.77196 36928 ft 553 kts 138°
2026-04-26 13:06 27.40249 35.83930 36919 ft 554 kts 137°
2026-04-26 13:06 27.35847 35.90218 36922 ft 554 kts 137°
2026-04-26 13:07 27.31023 35.96979 36924 ft 554 kts 137°
2026-04-26 13:07 27.26225 36.03763 36914 ft 554 kts 137°
2026-04-26 13:08 27.21411 36.10519 36916 ft 554 kts 137°
2026-04-26 13:08 27.16594 36.17288 36914 ft 555 kts 137°
2026-04-26 13:09 27.11777 36.24043 36916 ft 553 kts 137°
2026-04-26 13:09 27.06968 36.30771 36895 ft 552 kts 137°
2026-04-26 13:10 27.02165 36.37488 36893 ft 552 kts 138°
2026-04-26 13:10 26.97351 36.44203 36901 ft 553 kts 137°
2026-04-26 13:11 26.92559 36.50883 36889 ft 553 kts 137°
2026-04-26 13:11 26.87734 36.57597 36892 ft 553 kts 138°
2026-04-26 13:12 26.82914 36.64293 36886 ft 552 kts 138°
2026-04-26 13:12 26.78095 36.70978 36892 ft 551 kts 138°
2026-04-26 13:13 26.73279 36.77649 36897 ft 551 kts 137°
2026-04-26 13:13 26.68458 36.84316 36898 ft 551 kts 138°
2026-04-26 13:14 26.63629 36.90986 36906 ft 550 kts 137°
2026-04-26 13:14 26.58838 36.97595 36883 ft 547 kts 138°
2026-04-26 13:15 26.54017 37.04223 36931 ft 551 kts 137°
2026-04-26 13:15 26.50011 37.09746 36930 ft 550 kts 137°
2026-04-26 13:16 26.44372 37.17477 36940 ft 550 kts 137°
2026-04-26 13:16 26.39550 37.24093 36929 ft 550 kts 137°
2026-04-26 13:17 26.32298 37.34017 36928 ft 548 kts 138°
2026-04-26 13:18 26.25073 37.43879 36928 ft 548 kts 138°
2026-04-26 13:19 26.17832 37.53746 36898 ft 548 kts 137°
2026-04-26 13:19 26.13022 37.60286 36930 ft 546 kts 137°
2026-04-26 13:20 26.08206 37.66826 36930 ft 546 kts 137°
2026-04-26 13:20 26.03382 37.73367 36920 ft 546 kts 137°
2026-04-26 13:21 25.98605 37.79837 36925 ft 545 kts 137°
2026-04-26 13:21 25.93757 37.86390 36911 ft 545 kts 137°
2026-04-26 13:22 25.90136 37.91282 36896 ft 545 kts 137°
2026-04-26 13:22 25.85319 37.97779 36906 ft 544 kts 137°
2026-04-26 13:23 25.80499 38.04269 36897 ft 545 kts 137°
2026-04-26 13:23 25.75675 38.10759 36878 ft 545 kts 137°
2026-04-26 13:24 25.70855 38.17234 36891 ft 543 kts 137°
2026-04-26 13:24 25.66044 38.23685 36892 ft 542 kts 137°
2026-04-26 13:25 25.61238 38.30123 36895 ft 542 kts 137°
2026-04-26 13:25 25.56433 38.36548 36888 ft 542 kts 137°
2026-04-26 13:26 25.51624 38.42973 36891 ft 542 kts 137°
2026-04-26 13:26 25.46808 38.49395 36902 ft 542 kts 137°
2026-04-26 13:27 25.41986 38.55819 36897 ft 542 kts 137°
2026-04-26 13:27 25.37186 38.62202 36902 ft 543 kts 137°
2026-04-26 13:28 25.32357 38.68618 36920 ft 541 kts 137°
2026-04-26 13:28 25.27547 38.74999 36915 ft 540 kts 137°
2026-04-26 13:29 25.22734 38.81373 36928 ft 540 kts 137°
2026-04-26 13:29 25.19177 38.86082 36940 ft 541 kts 137°
2026-04-26 13:30 25.14360 38.92446 36928 ft 539 kts 137°
2026-04-26 13:30 25.09550 38.98795 36930 ft 539 kts 137°
2026-04-26 13:31 25.04740 39.05134 36936 ft 538 kts 137°
2026-04-26 13:31 24.99937 39.11456 36937 ft 538 kts 137°
2026-04-26 13:32 24.95126 39.17778 36941 ft 538 kts 137°
2026-04-26 13:32 24.90317 39.24094 36939 ft 537 kts 137°
2026-04-26 13:33 24.85504 39.30402 36940 ft 537 kts 137°
2026-04-26 13:33 24.80696 39.36696 36940 ft 538 kts 137°
2026-04-26 13:34 24.76699 39.41923 36943 ft 537 kts 136°
2026-04-26 13:34 24.71046 39.49301 36958 ft 540 kts 136°
2026-04-26 13:35 24.66236 39.55584 36954 ft 535 kts 137°
2026-04-26 13:35 24.61435 39.61826 36961 ft 534 kts 137°
2026-04-26 13:36 24.57567 39.67139 36957 ft 541 kts 128°
2026-04-26 13:36 24.55775 39.70799 36960 ft 550 kts 117°
2026-04-26 13:36 24.54552 39.74812 36963 ft 558 kts 105°
2026-04-26 13:37 24.53509 39.83302 36947 ft 561 kts 98°
2026-04-26 13:37 24.52720 39.91814 36955 ft 559 kts 98°
2026-04-26 13:38 24.51882 40.00302 36965 ft 559 kts 98°
2026-04-26 13:38 24.51065 40.08785 36960 ft 557 kts 98°
2026-04-26 13:39 24.50234 40.17241 36963 ft 557 kts 98°
2026-04-26 13:39 24.49403 40.25695 36951 ft 557 kts 98°
2026-04-26 13:40 24.48567 40.34130 36961 ft 555 kts 98°
2026-04-26 13:40 24.47727 40.42553 36961 ft 555 kts 98°
2026-04-26 13:41 24.46884 40.50984 36969 ft 556 kts 98°
2026-04-26 13:41 24.46034 40.59417 36968 ft 556 kts 98°
2026-04-26 13:42 24.45179 40.67843 36969 ft 556 kts 98°
2026-04-26 13:42 24.44317 40.76285 36979 ft 556 kts 98°
2026-04-26 13:43 24.43450 40.84729 36978 ft 557 kts 98°
2026-04-26 13:43 24.42583 40.93132 36972 ft 558 kts 98°
2026-04-26 13:44 24.41706 41.01579 36977 ft 557 kts 98°
2026-04-26 13:44 24.40824 41.10034 36986 ft 557 kts 98°
2026-04-26 13:45 24.39940 41.18476 36985 ft 557 kts 98°
2026-04-26 13:45 24.39050 41.26922 36982 ft 556 kts 98°
2026-04-26 13:46 24.38158 41.35351 36995 ft 556 kts 98°
2026-04-26 13:46 24.37260 41.43792 36998 ft 559 kts 98°
2026-04-26 13:47 24.36353 41.52267 37000 ft 559 kts 98°
2026-04-26 13:47 24.35443 41.60718 36997 ft 557 kts 98°
2026-04-26 13:48 24.34532 41.69141 36998 ft 556 kts 98°
2026-04-26 13:48 24.33617 41.77563 36996 ft 557 kts 98°
2026-04-26 13:49 24.32196 41.85862 37015 ft 554 kts 109°
2026-04-26 13:49 24.30063 41.93946 37024 ft 555 kts 109°
2026-04-26 13:50 24.27927 42.02082 37029 ft 556 kts 109°
2026-04-26 13:50 24.25775 42.10238 37028 ft 557 kts 109°
2026-04-26 13:51 24.23621 42.18384 37025 ft 556 kts 109°
2026-04-26 13:51 24.21468 42.26516 37028 ft 555 kts 109°
2026-04-26 13:52 24.19308 42.34643 37023 ft 555 kts 109°
2026-04-26 13:52 24.17146 42.42767 37016 ft 555 kts 109°
2026-04-26 13:53 24.14979 42.50888 37008 ft 555 kts 109°
2026-04-26 13:53 24.12808 42.59007 37004 ft 555 kts 109°
2026-04-26 13:54 24.10633 42.67122 36997 ft 555 kts 109°
2026-04-26 13:54 24.08461 42.75207 36989 ft 553 kts 109°
2026-04-26 13:55 24.05566 42.85951 36993 ft 553 kts 109°
2026-04-26 13:56 24.01917 42.99447 36997 ft 556 kts 109°
2026-04-26 13:56 23.99734 43.07495 36994 ft 554 kts 109°
2026-04-26 13:57 23.97539 43.15574 36990 ft 553 kts 109°
2026-04-26 13:57 23.95343 43.23630 36981 ft 553 kts 109°
2026-04-26 13:58 23.93150 43.31666 36991 ft 551 kts 109°
2026-04-26 13:58 23.90952 43.39694 36988 ft 551 kts 109°
2026-04-26 13:59 23.88748 43.47729 36985 ft 551 kts 109°
2026-04-26 13:59 23.86541 43.55757 36974 ft 549 kts 109°
2026-04-26 14:00 23.82146 43.71694 36971 ft 549 kts 109°
2026-04-26 14:01 23.79934 43.79688 36969 ft 550 kts 109°
2026-04-26 14:01 23.77756 43.87643 36958 ft 549 kts 104°
2026-04-26 14:02 23.76849 43.95948 36964 ft 550 kts 95°
2026-04-26 14:02 23.76264 44.04246 36956 ft 550 kts 95°
2026-04-26 14:03 23.75624 44.12582 36958 ft 549 kts 95°
2026-04-26 14:03 23.75008 44.20917 36962 ft 552 kts 95°
2026-04-26 14:04 23.74369 44.29278 36963 ft 553 kts 95°
2026-04-26 14:04 23.73733 44.37646 36969 ft 553 kts 95°
2026-04-26 14:05 23.73092 44.45974 36957 ft 552 kts 95°
2026-04-26 14:05 23.72450 44.54277 36962 ft 549 kts 95°
2026-04-26 14:06 23.71803 44.62577 36949 ft 548 kts 95°
2026-04-26 14:06 23.71156 44.70837 36955 ft 546 kts 95°
2026-04-26 14:07 23.70502 44.79107 36961 ft 546 kts 95°
2026-04-26 14:07 23.69844 44.87388 36956 ft 547 kts 95°
2026-04-26 14:08 23.69184 44.95624 36966 ft 548 kts 95°
2026-04-26 14:08 23.68515 45.03904 36949 ft 549 kts 95°
2026-04-26 14:09 23.67846 45.12151 36960 ft 545 kts 95°
2026-04-26 14:09 23.67170 45.20415 36961 ft 545 kts 95°
2026-04-26 14:10 23.66495 45.28612 36960 ft 547 kts 95°
2026-04-26 14:10 23.65811 45.36874 36957 ft 547 kts 95°
2026-04-26 14:11 23.64775 45.49278 36962 ft 548 kts 95°
2026-04-26 14:11 23.64079 45.57547 36942 ft 546 kts 95°
2026-04-26 14:12 23.63382 45.65774 36938 ft 543 kts 95°
2026-04-26 14:12 23.62683 45.73968 36936 ft 543 kts 95°
2026-04-26 14:13 23.61626 45.86269 36936 ft 544 kts 95°
2026-04-26 14:14 23.60915 45.94483 36940 ft 544 kts 95°
2026-04-26 14:14 23.60198 46.02712 36948 ft 546 kts 95°
2026-04-26 14:15 23.59475 46.10962 36959 ft 547 kts 95°
2026-04-26 14:15 23.58747 46.19211 36954 ft 547 kts 95°
2026-04-26 14:16 23.58015 46.27454 36963 ft 547 kts 95°
2026-04-26 14:16 23.57279 46.35707 36972 ft 547 kts 95°
2026-04-26 14:17 23.56538 46.43957 36976 ft 547 kts 95°
2026-04-26 14:17 23.55792 46.52204 36975 ft 547 kts 95°
2026-04-26 14:18 23.55041 46.60464 36952 ft 547 kts 95°
2026-04-26 14:18 23.54289 46.68681 36951 ft 543 kts 95°
2026-04-26 14:19 23.53540 46.76818 36955 ft 544 kts 95°
2026-04-26 14:19 23.52781 46.85029 36945 ft 544 kts 95°
2026-04-26 14:20 23.52017 46.93236 36943 ft 545 kts 95°
2026-04-26 14:20 23.51247 47.01451 36945 ft 546 kts 95°
2026-04-26 14:21 23.50472 47.09686 36940 ft 546 kts 95°
2026-04-26 14:21 23.49826 47.16514 36926 ft 543 kts 95°
2026-04-26 14:22 23.49044 47.24731 36925 ft 542 kts 95°
2026-04-26 14:22 23.48266 47.32860 36923 ft 544 kts 95°
2026-04-26 14:23 23.47477 47.41066 36925 ft 545 kts 96°
2026-04-26 14:23 23.46684 47.49263 36917 ft 543 kts 96°
2026-04-26 14:24 23.45889 47.57438 36913 ft 542 kts 96°
2026-04-26 14:24 23.45089 47.65616 36907 ft 542 kts 96°
2026-04-26 14:25 23.44291 47.73733 36910 ft 540 kts 96°
2026-04-26 14:25 23.43488 47.81862 36905 ft 540 kts 96°
2026-04-26 14:26 23.42679 47.90002 36896 ft 539 kts 96°
2026-04-26 14:26 23.41872 47.98085 36891 ft 538 kts 96°
2026-04-26 14:27 23.41056 48.06217 36898 ft 539 kts 96°
2026-04-26 14:27 23.40237 48.14330 36895 ft 541 kts 96°
2026-04-26 14:28 23.39412 48.22458 36897 ft 542 kts 96°
2026-04-26 14:28 23.38582 48.30596 36884 ft 539 kts 96°
2026-04-26 14:29 23.38045 48.38718 36896 ft 537 kts 91°
2026-04-26 14:29 23.37711 48.46858 36895 ft 541 kts 91°
2026-04-26 14:30 23.37383 48.55034 36899 ft 540 kts 91°
2026-04-26 14:30 23.37046 48.63193 36895 ft 539 kts 91°
2026-04-26 14:31 23.36707 48.71339 36894 ft 538 kts 91°
2026-04-26 14:31 23.36365 48.79471 36888 ft 538 kts 91°
2026-04-26 14:32 23.36019 48.87551 36882 ft 537 kts 91°
2026-04-26 14:32 23.35670 48.95658 36872 ft 535 kts 91°
2026-04-26 14:33 23.35316 49.03751 36873 ft 536 kts 91°
2026-04-26 14:33 23.34451 49.11808 36883 ft 537 kts 98°
2026-04-26 14:34 23.33275 49.19851 36888 ft 538 kts 98°
2026-04-26 14:34 23.32132 49.27900 36884 ft 538 kts 98°
2026-04-26 14:35 23.30963 49.35946 36883 ft 539 kts 98°
2026-04-26 14:35 23.29806 49.43966 36886 ft 540 kts 98°
2026-04-26 14:36 23.28632 49.52015 36867 ft 536 kts 98°
2026-04-26 14:36 23.27467 49.60013 36871 ft 535 kts 98°
2026-04-26 14:37 23.26294 49.68016 36871 ft 535 kts 98°
2026-04-26 14:37 23.25128 49.75952 36870 ft 535 kts 98°
2026-04-26 14:38 23.23949 49.83941 36874 ft 535 kts 98°
2026-04-26 14:38 23.22767 49.91927 36874 ft 535 kts 98°
2026-04-26 14:39 23.21578 49.99927 36863 ft 535 kts 98°
2026-04-26 14:39 23.20391 50.07888 36877 ft 533 kts 98°
2026-04-26 14:40 23.19203 50.15830 36876 ft 532 kts 98°
2026-04-26 14:40 23.18011 50.23764 36869 ft 532 kts 98°
2026-04-26 14:41 23.16816 50.31697 36872 ft 532 kts 98°
2026-04-26 14:41 23.15618 50.39617 36873 ft 532 kts 98°
2026-04-26 14:42 23.14415 50.47543 36874 ft 532 kts 98°
2026-04-26 14:42 23.13214 50.55432 36868 ft 531 kts 98°
2026-04-26 14:43 23.12001 50.63365 36878 ft 530 kts 98°
2026-04-26 14:43 23.10795 50.71234 36872 ft 529 kts 98°
2026-04-26 14:44 23.09583 50.79108 36872 ft 529 kts 98°
2026-04-26 14:44 23.08366 50.86991 36878 ft 530 kts 98°
2026-04-26 14:45 23.07162 50.94766 36890 ft 531 kts 98°
2026-04-26 14:45 23.05933 51.02676 36897 ft 531 kts 98°
2026-04-26 14:46 23.04699 51.10586 36873 ft 530 kts 98°
2026-04-26 14:46 23.03469 51.18446 36868 ft 526 kts 98°
2026-04-26 14:47 23.02241 51.26267 36873 ft 526 kts 98°
2026-04-26 14:47 23.01007 51.34104 36880 ft 526 kts 98°
2026-04-26 14:48 22.99777 51.41883 36867 ft 525 kts 98°
2026-04-26 14:48 22.98538 51.49701 36876 ft 526 kts 98°
2026-04-26 14:49 22.97292 51.57533 36873 ft 527 kts 98°
2026-04-26 14:49 22.96039 51.65382 36871 ft 527 kts 98°
2026-04-26 14:50 22.94784 51.73224 36883 ft 527 kts 98°
2026-04-26 14:50 22.93527 51.81050 36881 ft 527 kts 98°
2026-04-26 14:51 22.92264 51.88886 36885 ft 527 kts 98°
2026-04-26 14:51 22.90999 51.96710 36873 ft 526 kts 98°
2026-04-26 14:52 22.89730 52.04528 36879 ft 526 kts 98°
2026-04-26 14:52 22.88467 52.12292 36871 ft 527 kts 98°
2026-04-26 14:53 22.87188 52.20125 36886 ft 528 kts 98°
2026-04-26 14:53 22.85906 52.27957 36867 ft 525 kts 98°
2026-04-26 14:54 22.84627 52.35740 36882 ft 523 kts 98°
2026-04-26 14:54 22.83348 52.43506 36865 ft 524 kts 98°
2026-04-26 14:55 22.82382 52.51306 36894 ft 520 kts 89°
2026-04-26 14:55 22.82190 52.59160 36876 ft 522 kts 89°
2026-04-26 14:56 22.81986 52.67019 36871 ft 522 kts 89°
2026-04-26 14:56 22.81781 52.74877 36869 ft 521 kts 89°
2026-04-26 14:57 22.81572 52.82728 36862 ft 522 kts 89°
2026-04-26 14:57 22.81357 52.90602 36870 ft 522 kts 89°
2026-04-26 14:58 22.81139 52.98481 36877 ft 523 kts 89°
2026-04-26 14:58 22.80917 53.06345 36855 ft 520 kts 89°
2026-04-26 14:59 22.80694 53.14154 36855 ft 519 kts 89°
2026-04-26 14:59 22.80466 53.21977 36863 ft 519 kts 89°
2026-04-26 15:00 22.80236 53.29748 36876 ft 521 kts 89°
2026-04-26 15:00 22.79998 53.37737 36867 ft 538 kts 89°
2026-04-26 15:01 22.79745 53.45848 36877 ft 538 kts 89°
2026-04-26 15:01 22.79496 53.53941 36870 ft 537 kts 89°
2026-04-26 15:02 22.79239 53.62030 36863 ft 537 kts 89°
2026-04-26 15:02 22.78979 53.70128 36858 ft 538 kts 89°
2026-04-26 15:03 22.78714 53.78235 36871 ft 538 kts 89°
2026-04-26 15:03 22.78446 53.86334 36869 ft 538 kts 89°
2026-04-26 15:04 22.78173 53.94413 36847 ft 534 kts 89°
2026-04-26 15:04 22.78590 54.02367 36873 ft 525 kts 73°
2026-04-26 15:05 22.80163 54.10120 36870 ft 527 kts 73°
2026-04-26 15:05 22.81748 54.17878 36862 ft 527 kts 73°
2026-04-26 15:06 22.83317 54.25637 36863 ft 527 kts 73°
2026-04-26 15:06 22.84887 54.33383 36866 ft 526 kts 73°
2026-04-26 15:07 22.87228 54.45000 36860 ft 526 kts 73°
2026-04-26 15:07 22.88522 54.51435 36864 ft 526 kts 73°
2026-04-26 15:08 22.90077 54.59193 36862 ft 526 kts 73°
2026-04-26 15:08 22.91628 54.66945 36860 ft 526 kts 73°
2026-04-26 15:09 22.93175 54.74701 36853 ft 525 kts 73°
2026-04-26 15:09 22.94715 54.82442 36842 ft 525 kts 73°
2026-04-26 15:10 22.95990 54.88867 36844 ft 524 kts 73°
2026-04-26 15:10 22.97779 54.97905 36848 ft 524 kts 73°
2026-04-26 15:11 22.99306 55.05642 36848 ft 523 kts 73°
2026-04-26 15:11 23.00969 55.13310 36871 ft 518 kts 65°
2026-04-26 15:12 23.02423 55.16846 36893 ft 511 kts 54°
2026-04-26 15:12 23.04381 55.20029 36891 ft 503 kts 45°
2026-04-26 15:12 23.09478 55.25004 36887 ft 486 kts 26°
2026-04-26 15:13 23.15564 55.27860 36890 ft 471 kts
2026-04-26 15:13 23.21899 55.29753 36875 ft 472 kts
2026-04-26 15:14 23.28244 55.31606 36878 ft 472 kts
2026-04-26 15:14 23.34539 55.33473 36881 ft 472 kts
2026-04-26 15:15 23.40828 55.35329 36872 ft 460 kts
2026-04-26 15:15 23.43905 55.36239 36680 ft 456 kts
2026-04-26 15:15 23.46967 55.37142 36382 ft 455 kts
2026-04-26 15:16 23.53048 55.38941 36385 ft 455 kts
2026-04-26 15:16 23.59165 55.40751 35818 ft 453 kts
2026-04-26 15:17 23.62198 55.41651 35387 ft 449 kts
2026-04-26 15:17 23.64188 55.42241 35120 ft 445 kts
2026-04-26 15:17 23.68172 55.43419 34732 ft 444 kts
2026-04-26 15:17 23.71179 55.44306 34527 ft 453 kts
2026-04-26 15:18 23.74277 55.45221 34324 ft 470 kts
2026-04-26 15:18 23.77472 55.46171 34086 ft 479 kts
2026-04-26 15:18 23.80691 55.47135 33836 ft 480 kts
2026-04-26 15:18 23.83872 55.48082 33562 ft 480 kts
2026-04-26 15:19 23.87101 55.49037 33281 ft 481 kts
2026-04-26 15:19 23.90342 55.49997 32984 ft 483 kts
2026-04-26 15:19 23.93592 55.50963 32695 ft 485 kts 10°
2026-04-26 15:19 23.96855 55.51945 32422 ft 488 kts 12°
2026-04-26 15:20 24.00028 55.53341 32164 ft 497 kts 22°
2026-04-26 15:20 24.03005 55.55328 31915 ft 506 kts 32°
2026-04-26 15:20 24.05709 55.57827 31642 ft 512 kts 37°
2026-04-26 15:20 24.08345 55.60417 31269 ft 504 kts 38°
2026-04-26 15:21 24.10915 55.62976 30900 ft 495 kts 38°
2026-04-26 15:21 24.13442 55.65493 30515 ft 486 kts 38°
2026-04-26 15:21 24.15911 55.67937 30111 ft 468 kts 38°
2026-04-26 15:21 24.18252 55.70259 29643 ft 439 kts 38°
2026-04-26 15:22 24.20452 55.72445 29128 ft 416 kts 38°
2026-04-26 15:22 24.22542 55.74520 28626 ft 396 kts 38°
2026-04-26 15:22 24.24544 55.76506 28139 ft 381 kts 38°
2026-04-26 15:22 24.26520 55.78463 27666 ft 385 kts 38°
2026-04-26 15:23 24.28512 55.80441 27191 ft 386 kts 39°
2026-04-26 15:23 24.30496 55.82420 26720 ft 385 kts 39°
2026-04-26 15:23 24.32474 55.84391 26260 ft 385 kts 39°
2026-04-26 15:23 24.34455 55.86361 25811 ft 384 kts 39°
2026-04-26 15:24 24.36431 55.88328 25380 ft 383 kts 39°
2026-04-26 15:24 24.38401 55.90292 24939 ft 382 kts 39°
2026-04-26 15:24 24.40368 55.92253 24511 ft 382 kts 39°
2026-04-26 15:24 24.42334 55.94212 24069 ft 381 kts 39°
2026-04-26 15:25 24.44296 55.96169 23632 ft 381 kts 39°
2026-04-26 15:25 24.45585 55.97456 23313 ft 376 kts 40°
2026-04-26 15:25 24.48104 55.99974 22551 ft 357 kts 40°
2026-04-26 15:25 24.49952 56.01817 22058 ft 360 kts 40°
2026-04-26 15:26 24.51804 56.03664 21556 ft 360 kts 40°
2026-04-26 15:26 24.53628 56.05488 21089 ft 359 kts 40°
2026-04-26 15:26 24.55483 56.07348 20592 ft 351 kts 40°
2026-04-26 15:26 24.57246 56.09123 20085 ft 338 kts 40°
2026-04-26 15:27 24.58978 56.10856 19590 ft 332 kts 38°
2026-04-26 15:27 24.60860 56.12143 19123 ft 319 kts 16°
2026-04-26 15:27 24.62993 56.12703 18668 ft 313 kts
2026-04-26 15:27 24.65150 56.13101 18224 ft 315 kts
2026-04-26 15:28 24.67307 56.13476 17717 ft 313 kts
2026-04-26 15:28 24.69447 56.13865 17198 ft 311 kts
2026-04-26 15:28 24.71568 56.14261 16719 ft 308 kts
2026-04-26 15:28 24.73671 56.14650 16214 ft 304 kts
2026-04-26 15:29 24.75751 56.15033 15721 ft 301 kts
2026-04-26 15:29 24.77812 56.15407 15256 ft 298 kts
2026-04-26 15:29 24.81691 56.14571 14342 ft 284 kts 334°
2026-04-26 15:30 24.85264 56.12792 13408 ft 277 kts 333°
2026-04-26 15:30 24.87022 56.11921 12909 ft 276 kts 333°
2026-04-26 15:30 24.88751 56.11022 12391 ft 271 kts 324°
2026-04-26 15:31 24.89905 56.09484 12067 ft 256 kts 292°
2026-04-26 15:31 24.91375 56.05731 11246 ft 264 kts 294°
2026-04-26 15:31 24.92195 56.03927 10771 ft 262 kts 296°
2026-04-26 15:32 24.93538 56.00992 10014 ft 258 kts 295°
2026-04-26 15:32 24.94581 55.98641 9386 ft 254 kts 296°
2026-04-26 15:32 24.95358 55.96898 8892 ft 253 kts 296°
2026-04-26 15:33 24.96131 55.95172 8392 ft 249 kts 296°
2026-04-26 15:33 24.96897 55.93459 7928 ft 248 kts 296°
2026-04-26 15:33 24.97654 55.91764 7445 ft 245 kts 297°
2026-04-26 15:33 24.98400 55.90091 6981 ft 241 kts 297°
2026-04-26 15:34 24.99118 55.88480 6508 ft 228 kts 297°
2026-04-26 15:34 24.99801 55.86951 6049 ft 216 kts 297°
2026-04-26 15:34 25.00439 55.85521 5899 ft 209 kts 297°
2026-04-26 15:34 25.01093 55.84060 5594 ft 213 kts 297°
2026-04-26 15:35 25.01731 55.82625 5357 ft 209 kts 297°
2026-04-26 15:35 25.02368 55.81193 5108 ft 207 kts 297°
2026-04-26 15:35 25.03000 55.79775 4865 ft 205 kts 297°
2026-04-26 15:35 25.03627 55.78369 4625 ft 204 kts 297°
2026-04-26 15:36 25.04251 55.76964 4370 ft 204 kts 297°
2026-04-26 15:36 25.04875 55.75562 4108 ft 203 kts 297°
2026-04-26 15:36 25.05488 55.74182 4013 ft 198 kts 297°
2026-04-26 15:36 25.06104 55.72802 4017 ft 201 kts 297°
2026-04-26 15:37 25.06721 55.71414 4023 ft 202 kts 297°
2026-04-26 15:37 25.07342 55.70015 4023 ft 203 kts 297°
2026-04-26 15:37 25.07963 55.68615 4026 ft 203 kts 297°
2026-04-26 15:37 25.08586 55.67213 4028 ft 203 kts 297°
2026-04-26 15:38 25.09188 55.65857 3959 ft 192 kts 297°
2026-04-26 15:38 25.09765 55.64557 3869 ft 187 kts 297°
2026-04-26 15:38 25.10348 55.63296 3763 ft 182 kts 301°
2026-04-26 15:38 25.11032 55.62147 3641 ft 174 kts 301°
2026-04-26 15:39 25.11640 55.61041 3477 ft 166 kts 301°
2026-04-26 15:39 25.12231 55.59974 3349 ft 157 kts 301°
2026-04-26 15:39 25.12797 55.58952 3105 ft 156 kts 301°
2026-04-26 15:39 25.13172 55.58275 2948 ft 156 kts 301°
2026-04-26 15:40 25.13921 55.56925 2660 ft 151 kts 300°
2026-04-26 15:40 25.14448 55.55983 2569 ft 140 kts 300°
2026-04-26 15:40 25.14960 55.55062 2291 ft 141 kts 300°
2026-04-26 15:40 25.15478 55.54126 2037 ft 141 kts 300°
2026-04-26 15:41 25.15964 55.53250 2019 ft 137 kts 300°
2026-04-26 15:41 25.16493 55.52293 2009 ft 141 kts 299°
2026-04-26 15:41 25.16996 55.51393 2012 ft 136 kts 302°
2026-04-26 15:41 25.17493 55.50504 2016 ft 138 kts 301°
2026-04-26 15:42 25.17999 55.49593 2008 ft 140 kts 300°
2026-04-26 15:42 25.18517 55.48655 1826 ft 143 kts 300°
2026-04-26 15:42 25.19035 55.47720 1605 ft 144 kts 300°
2026-04-26 15:42 25.19550 55.46787 1342 ft 141 kts 301°
2026-04-26 15:43 25.20058 55.45865 1163 ft 138 kts 300°
2026-04-26 15:43 25.20562 55.44950 1018 ft 142 kts 300°
2026-04-26 15:43 25.21613 55.43067 766 ft 143 kts 299°
2026-04-26 15:44 25.22135 55.42128 600 ft 144 kts 300°
2026-04-26 15:44 25.23161 55.40266 223 ft 146 kts 300°
2026-04-26 15:44 25.23679 55.39323 37 ft 133 kts 300°
2026-04-26 15:45 25.24319 55.38177 32 ft 65 kts 301°
2026-04-26 15:45 25.24531 55.37790 28 ft 46 kts 301°
2026-04-26 15:46 25.24616 55.37389 27 ft 17 kts 272°
2026-04-26 15:46 25.24618 55.37321 27 ft 0 kts 274°
2026-04-26 15:49 25.24619 55.37314 27 ft 4 kts 275°
2026-04-26 15:49 25.24630 55.37264 27 ft 8 kts 288°
2026-04-26 15:49 25.24657 55.37205 27 ft 9 kts 300°
2026-04-26 15:50 25.24693 55.37138 28 ft 11 kts 301°
2026-04-26 15:50 25.24711 55.37105 28 ft 1 kts 301°
2026-04-26 15:50 25.24720 55.37089 28 ft 4 kts 301°
2026-04-26 15:50 25.24745 55.37044 28 ft 10 kts 302°
2026-04-26 15:51 25.24787 55.36970 27 ft 12 kts 302°
2026-04-26 15:51 25.24833 55.36885 28 ft 14 kts 297°
2026-04-26 15:51 25.24866 55.36769 27 ft 19 kts 280°
2026-04-26 15:51 25.24912 55.36628 27 ft 20 kts 301°
2026-04-26 15:52 25.24987 55.36494 27 ft 21 kts 302°
2026-04-26 15:52 25.25067 55.36355 27 ft 22 kts 302°
2026-04-26 15:52 25.25147 55.36213 27 ft 19 kts 301°
2026-04-26 15:52 25.25194 55.36129 27 ft 20 kts 302°
2026-04-26 15:53 25.25281 55.35974 27 ft 25 kts 301°
2026-04-26 15:53 25.25371 55.35815 27 ft 24 kts 302°
2026-04-26 15:53 25.25459 55.35657 27 ft 24 kts 301°
2026-04-26 15:53 25.25550 55.35497 27 ft 25 kts 302°
2026-04-26 15:54 25.25624 55.35367 27 ft 16 kts 302°
2026-04-26 15:54 25.25665 55.35290 27 ft 11 kts 300°
2026-04-26 15:54 25.25708 55.35212 27 ft 14 kts 302°
2026-04-26 15:54 25.25762 55.35119 27 ft 15 kts 301°
2026-04-26 15:55 25.25818 55.35015 27 ft 13 kts 300°
2026-04-26 15:55 25.25842 55.34970 27 ft 5 kts 300°
2026-04-26 15:55 25.25860 55.34899 27 ft 19 kts 276°
2026-04-26 15:55 25.25867 55.34755 27 ft 16 kts 285°
2026-04-26 15:56 25.25905 55.34670 27 ft 0 kts 301°
2026-04-26 15:56 25.25910 55.34661 27 ft 3 kts 301°
2026-04-26 15:56 25.25912 55.34657 27 ft 3 kts 301°
2026-04-26 15:56 25.25920 55.34637 27 ft 3 kts 283°
2026-04-26 15:57 25.25905 55.34610 27 ft 5 kts 218°
2026-04-26 15:57 25.25871 55.34587 27 ft 7 kts 212°
2026-04-26 15:57 25.25848 55.34571 27 ft 1 kts 211°
2026-04-26 15:57 25.25847 55.34571 27 ft 0 kts 211°